Cloud_Cover
100 100 100 100 100 25 1 1 0 1 5 2 0 0 0 55 100 100 100 100 100 100
100 100 100 100 98 100 62 6 14 78 92 90 9 5 5 3 23 100 100 100 100 100
100 100 100 100 100 100 100 35 68 77 100 100 100 99 90 86 63 51 39 99 100 100
100 100 100 100 99 100 100 100 97 88 97 97 66 71 99 100 100 100 100 70 100 99
100 100 100 100 100 100 100 100 100 99 100 82 56 50 46 100 100 100 100 100 100 100
100 100 100 100 100 100 100 100 100 100 100 100 99 100 100 100 100 100 100 100 100 100
100 100 100 100 100 100 100 100 100 100 100 100 100 99 100 100 100 100 100 100 100 100
100 100 100 100 100 100 100 100 100 100 100 100 100 100 100 100 100 100 100 100 100 100
100 100 100 100 100 100 100 100 100 100 100 100 100 100 100 100 100 100 100 100 100 100
100 100 100 100 100 100 100 100 100 100 100 100 100 100 100 100 100 100 100 100 100 100
100 100 100 100 100 100 100 100 100 100 100 100 100 100 100 100 100 100 100 100 100 100
100 100 100 100 100 100 100 100 100 100 100 100 100 100 100 100 100 100 100 100 100 100
100 100 100 100 100 100 100 100 100 100 100 100 100 100 100 100 100 100 100 100 100 100
100 100 100 100 100 100 100 100 100 100 100 100 100 100 100 100 100 100 100 100 100 100